Location: Huisseau
(47.5933°N, 1.4533°E)
Time: 18:04:24
(UTC+00:00)

CENTAUR R/B - Pass Details

Date: 21 November 2025
Orbit: 633 x 1547 km, 63.4° (Epoch: 06 December)

Event Time Altitude Azimuth Distance (km) Brightness Sun altitude
Exits shadow 04:17:20 50° 307° (NW) 1,755 3.4 -28.4°
Maximum altitude 04:20:02 76° 234° (SW) 1,496 3.2 -28.0°
Drops below altitude 10° 04:29:27 10° 151° (SSE) 3,716 5.8 -26.4°
Sets 04:32:32 0° 150° (SSE) 4,700 6.5 -25.9°
